GW7089 Weather Reports


time (UTC)temp
F
wind
direction
speed
knots
gust
knots
rain 1hr
in
rain 24hr
in
rain mn
in
humidity
%
barometer
mb
20260505183657 84 327 2.6 6.1 0.00 0.00 0.00 38 1015.5
20260505183157 84 256 3.5 6.1 0.00 0.00 0.00 39 1015.5
20260505182658 84 331 3.5 7.8 0.00 0.00 0.00 39 1015.4
20260505182156 84 345 1.7 5.2 0.00 0.00 0.00 38 1015.6
20260505181657 83 340 1.7 3.5 0.00 0.00 0.00 38 1015.5
20260505181201 83 279 2.6 6.1 0.00 0.00 0.00 37 1015.7
20260505180657 83 289 2.6 4.3 0.00 0.00 0.00 40 1015.7
20260505180156 83 148 2.6 6.1 0.00 0.00 0.00 40 1015.7
20260505175656 83 332 3.5 8.7 0.00 0.00 0.00 39 1015.7
20260505175157 83 261 2.6 6.1 0.00 0.00 0.00 40 1015.7
20260505174656 83 332 2.6 7.0 0.00 0.00 0.00 42 1015.7
20260505174200 83 145 3.5 9.6 0.00 0.00 0.00 42 1015.4
20260505173656 82 246 1.7 3.5 0.00 0.00 0.00 41 1015.7
20260505173158 82 352 1.7 4.3 0.00 0.00 0.00 41 1015.9
20260505172657 82 341 2.6 7.0 0.00 0.00 0.00 42 1015.9
20260505172156 82 189 4.3 7.8 0.00 0.00 0.00 42 1015.9
20260505171656 82 196 3.5 6.1 0.00 0.00 0.00 43 1015.9
20260505171156 82 21 2.6 6.1 0.00 0.00 0.00 43 1016.2
20260505170657 82 156 1.7 4.3 0.00 0.00 0.00 43 1016.1
20260505170158 81 231 1.7 3.5 0.00 0.00 0.00 43 1016.2
20260505165657 81 77 3.5 8.7 0.00 0.00 0.00 43 1016.2
20260505165157 81 250 1.7 5.2 0.00 0.00 0.00 44 1016.3
20260505164657 81 311 3.5 7.8 0.00 0.00 0.00 44 1016.4
20260505164157 80 54 2.6 5.2 0.00 0.00 0.00 45 1016.3
20260505163656 80 326 3.5 7.8 0.00 0.00 0.00 44 1016.4
20260505163156 80 292 2.6 4.3 0.00 0.00 0.00 46 1016.4
20260505162657 80 9 5.2 7.0 0.00 0.00 0.00 46 1016.5
20260505162157 80 6 3.5 5.2 0.00 0.00 0.00 47 1016.5
20260505161657 80 219 2.6 5.2 0.00 0.00 0.00 46 1016.6
20260505161157 80 62 1.7 6.1 0.00 0.00 0.00 47 1016.6
20260505160656 79 5 1.7 3.5 0.00 0.00 0.00 48 1016.6
20260505160157 79 278 4.3 7.0 0.00 0.00 0.00 47 1016.7
20260505153157 78 260 1.7 3.5 0.00 0.00 0.00 49 1016.7
20260505152658 77 216 1.7 5.2 0.00 0.00 0.00 50 1016.7
20260505152156 77 287 2.6 6.1 0.00 0.00 0.00 49 1016.7
20260505151701 77 271 3.5 7.0 0.00 0.00 0.00 49 1016.8
20260505151156 76 238 1.7 4.3 0.00 0.00 0.00 51 1016.8
20260505150656 76 45 5.2 7.8 0.00 0.00 0.00 51 1016.7
20260505150158 75 56 2.6 6.1 0.00 0.00 0.00 53 1016.9
20260505140158 71 225 4.3 6.1 0.00 0.00 0.00 58 1017.0
20260505130156 66 291 2.6 6.1 0.00 0.00 0.00 64 1017.3
20260505124656 65 303 2.6 3.5 0.00 0.00 0.00 65 1017.2
20260505124156 65 336 1.7 4.3 0.00 0.00 0.00 66 1017.2
20260505123657 65 265 2.6 6.1 0.00 0.00 0.00 66 1017.1
20260505123157 64 307 1.7 4.3 0.00 0.00 0.00 66 1017.2
20260505122657 64 25 1.7 1.7 0.00 0.00 0.00 67 1017.2
20260505122156 64 7 0.9 2.6 0.00 0.00 0.00 67 1017.1
20260505121656 63 308 1.7 3.5 0.00 0.00 0.00 68 1017.1
20260505121156 63 0 0.0 0.0 0.00 0.00 0.00 69 1017.1
20260505120657 62 98 0.0 0.0 0.00 0.00 0.00 69 1017.1
20260505120157 62 7 1.7 2.6 0.00 0.00 0.00 70 1017.0
20260505115657 62 175 1.7 1.7 0.00 0.00 0.00 70 1017.0
20260505115156 62 342 0.9 2.6 0.00 0.00 0.00 71 1017.0
20260505114657 61 332 2.6 3.5 0.00 0.00 0.00 71 1017.1
20260505114156 61 314 0.9 1.7 0.00 0.00 0.00 71 1017.0
20260505113658 61 307 1.7 3.5 0.00 0.00 0.00 72 1017.0
20260505113156 60 193 0.9 1.7 0.00 0.00 0.00 72 1016.9
20260505112657 60 61 0.9 1.7 0.00 0.00 0.00 72 1016.9
20260505112156 60 219 1.7 2.6 0.00 0.00 0.00 73 1016.9
20260505111656 60 3 0.9 1.7 0.00 0.00 0.00 73 1016.8
20260505111157 59 323 0.9 1.7 0.00 0.00 0.00 73 1016.8
20260505110657 59 187 0.9 1.7 0.00 0.00 0.00 74 1016.8
20260505110157 59 193 0.9 1.7 0.00 0.00 0.00 74 1016.7
20260505102157 58 25 0.9 2.6 0.00 0.00 0.00 74 1016.2
20260505101656 58 217 0.0 1.7 0.00 0.00 0.00 74 1016.2
20260505101156 58 152 0.9 0.9 0.00 0.00 0.00 74 1016.2
20260505100657 59 297 0.9 1.7 0.00 0.00 0.00 74 1016.1
20260505100156 59 324 0.0 0.9 0.00 0.00 0.00 74 1016.0
20260505095657 59 0 0.0 0.0 0.00 0.00 0.00 74 1016.0
20260505095156 59 98 0.9 1.7 0.00 0.00 0.00 73 1015.9
20260505094656 59 344 0.0 0.0 0.00 0.00 0.00 73 1015.9
20260505094156 59 192 0.0 0.9 0.00 0.00 0.00 73 1015.9
20260505093656 59 308 0.9 1.7 0.00 0.00 0.00 73 1015.8
20260505093156 59 38 0.9 0.9 0.00 0.00 0.00 73 1015.8
20260505092656 59 9 1.7 1.7 0.00 0.00 0.00 73 1015.8
20260505092157 59 318 0.9 1.7 0.00 0.00 0.00 73 1015.8
20260505091657 59 204 1.7 2.6 0.00 0.00 0.00 73 1015.8
20260505091156 59 0 0.0 0.0 0.00 0.00 0.00 73 1015.7
20260505090656 59 198 0.0 1.7 0.00 0.00 0.00 73 1015.7
20260505090156 59 283 0.9 1.7 0.00 0.00 0.00 72 1015.7
20260505085657 59 75 0.9 3.5 0.00 0.00 0.00 72 1015.7
20260505085156 59 193 0.9 2.6 0.00 0.00 0.00 72 1015.7
20260505084657 59 348 0.0 1.7 0.00 0.00 0.00 72 1015.7
20260505084157 59 307 0.0 0.9 0.00 0.00 0.00 72 1015.7
20260505083657 60 38 0.9 1.7 0.00 0.00 0.00 72 1015.7
20260505083156 60 0 0.0 0.0 0.00 0.00 0.00 72 1015.7
20260505082657 60 215 0.0 1.7 0.00 0.00 0.00 72 1015.7
20260505082206 60 317 0.9 3.5 0.00 0.00 0.00 71 1015.7
20260505081656 60 341 0.0 1.7 0.00 0.00 0.00 71 1015.7
20260505081157 60 345 0.9 1.7 0.00 0.00 0.00 71 1015.6
20260505080656 60 350 0.9 2.6 0.00 0.00 0.00 70 1015.5
20260505080157 60 276 0.0 0.9 0.00 0.00 0.00 70 1015.5
20260505075656 60 326 0.0 1.7 0.00 0.00 0.00 70 1015.4
20260505075157 60 301 0.9 1.7 0.00 0.00 0.00 70 1015.4
20260505074656 61 145 0.0 1.7 0.00 0.00 0.00 70 1015.4
20260505074156 61 131 0.0 0.0 0.00 0.00 0.00 69 1015.4
20260505073657 61 0 0.9 2.6 0.00 0.00 0.00 69 1015.3
20260505073156 61 346 1.7 2.6 0.00 0.00 0.00 69 1015.2
20260505072656 61 0 0.9 2.6 0.00 0.00 0.00 69 1015.2
20260505072156 61 319 0.0 0.9 0.00 0.00 0.00 69 1015.2
20260505071657 61 113 0.9 2.6 0.00 0.00 0.00 68 1015.3
20260505071157 61 297 0.9 1.7 0.00 0.00 0.00 68 1015.2
20260505070656 61 330 1.7 3.5 0.00 0.00 0.00 68 1015.2
20260505070156 62 6 0.0 0.9 0.00 0.00 0.00 68 1015.2
20260505065656 62 340 0.9 1.7 0.00 0.00 0.00 67 1015.2
20260505065156 62 317 1.7 4.3 0.00 0.00 0.00 67 1015.1
20260505064657 62 227 0.9 1.7 0.00 0.00 0.00 67 1015.2
20260505064157 62 297 0.9 3.5 0.00 0.00 0.00 67 1015.2
20260505063657 62 82 0.0 0.9 0.00 0.00 0.00 66 1015.3
20260505063156 62 88 1.7 2.6 0.00 0.00 0.00 66 1015.3
20260505062657 62 329 0.9 3.5 0.00 0.00 0.00 66 1015.3
20260505062156 62 322 0.9 3.5 0.00 0.00 0.00 66 1015.3
20260505061656 62 113 0.9 1.7 0.00 0.00 0.00 65 1015.4
20260505061157 63 99 0.9 2.6 0.00 0.00 0.00 65 1015.3
20260505060657 63 316 0.9 1.7 0.00 0.00 0.00 65 1015.3
20260505060156 63 15 0.9 1.7 0.00 0.00 0.00 64 1015.3
20260505055656 63 271 0.0 0.9 0.00 0.00 0.00 64 1015.3
20260505055156 63 303 1.7 4.3 0.00 0.00 0.00 64 1015.3
20260505054656 63 207 0.9 3.5 0.00 0.00 0.00 63 1015.4
20260505054156 63 333 0.9 4.3 0.00 0.00 0.00 64 1015.5
20260505053659 63 299 1.7 4.3 0.00 0.00 0.00 63 1015.5
20260505053156 64 38 1.7 3.5 0.00 0.00 0.00 63 1015.6
20260505052656 64 100 0.0 1.7 0.00 0.00 0.00 63 1015.6
20260505052156 64 26 0.9 3.5 0.00 0.00 0.00 63 1015.5
20260505051656 64 284 1.7 3.5 0.00 0.00 0.00 63 1015.6
20260505051156 64 6 0.9 3.5 0.00 0.00 0.00 63 1015.6
20260505050656 64 53 0.9 1.7 0.00 0.00 0.00 63 1015.6
20260505050156 64 326 0.9 3.5 0.00 0.00 0.00 63 1015.7
20260505041656 65 356 0.9 2.6 0.00 0.00 0.00 63 1015.5
20260505041157 65 12 1.7 5.2 0.00 0.00 0.00 63 1015.5
20260505040656 65 51 1.7 4.3 0.00 0.00 0.00 63 1015.5
20260505040157 65 71 1.7 4.3 0.00 0.00 0.00 63 1015.5
20260505035657 65 47 1.7 7.0 0.00 0.00 0.00 62 1015.4
20260505035156 65 10 0.9 3.5 0.00 0.00 0.00 62 1015.4
20260505034656 65 36 1.7 5.2 0.00 0.00 0.00 62 1015.4
20260505034157 65 313 2.6 4.3 0.00 0.00 0.00 62 1015.3
20260505033657 65 352 0.9 2.6 0.00 0.00 0.00 62 1015.3
20260505033157 65 343 1.7 3.5 0.00 0.00 0.00 62 1015.2
20260505032656 65 321 0.9 1.7 0.00 0.00 0.00 62 1015.3
20260505032157 65 338 0.9 1.7 0.00 0.00 0.00 62 1015.3
20260505031656 65 131 1.7 2.6 0.00 0.00 0.00 62 1015.4
20260505031157 65 56 2.6 3.5 0.00 0.00 0.00 62 1015.2
20260505030657 65 219 3.5 4.3 0.00 0.00 0.00 62 1015.3
20260505030156 65 208 2.6 3.5 0.00 0.00 0.00 62 1015.4
20260505025656 65 49 2.6 3.5 0.00 0.00 0.00 63 1015.3
20260505025156 66 47 1.7 2.6 0.00 0.00 0.00 63 1015.4
20260505024656 66 49 2.6 3.5 0.00 0.00 0.00 63 1015.3
20260505024156 66 53 3.5 5.2 0.00 0.00 0.00 63 1015.2
20260505023657 66 50 1.7 4.3 0.00 0.00 0.00 63 1015.2
20260505023156 66 51 2.6 6.1 0.00 0.00 0.00 63 1015.2
20260505022656 66 52 3.5 4.3 0.00 0.00 0.00 63 1015.2
20260505022156 66 63 2.6 3.5 0.00 0.00 0.00 63 1015.2
20260505021656 66 50 1.7 3.5 0.00 0.00 0.00 64 1015.2
20260505021156 66 49 1.7 2.6 0.00 0.00 0.00 63 1015.2
20260505020656 66 49 1.7 3.5 0.00 0.00 0.00 64 1015.3
20260505020159 67 52 3.5 6.1 0.00 0.00 0.00 63 1015.4
20260505015657 67 169 1.7 3.5 0.00 0.00 0.00 64 1015.3
20260505015156 67 210 1.7 3.5 0.00 0.00 0.00 64 1015.2
20260505014657 67 229 1.7 2.6 0.00 0.00 0.00 64 1015.2
20260505014156 67 208 2.6 3.5 0.00 0.00 0.00 64 1015.2
20260505013656 67 45 2.6 3.5 0.00 0.00 0.00 63 1015.1
20260505013156 67 45 1.7 3.5 0.00 0.00 0.00 63 1015.0
20260505012657 67 52 1.7 2.6 0.00 0.00 0.00 63 1015.0
20260505012156 67 47 1.7 2.6 0.00 0.00 0.00 63 1014.9
20260505011656 67 224 2.6 4.3 0.00 0.00 0.00 63 1014.8
20260505011156 67 121 2.6 4.3 0.00 0.00 0.00 63 1014.7
20260505010657 67 57 2.6 4.3 0.00 0.00 0.00 63 1014.6
20260505010157 68 72 1.7 2.6 0.00 0.00 0.00 63 1014.5
20260505005657 68 94 2.6 3.5 0.00 0.00 0.00 62 1014.4
20260505005156 68 55 3.5 6.1 0.00 0.00 0.00 62 1014.4
20260505004656 68 61 4.3 9.6 0.00 0.00 0.00 62 1014.2
20260505004157 68 61 1.7 3.5 0.00 0.00 0.00 62 1014.2
20260505003656 68 72 2.6 5.2 0.00 0.00 0.00 61 1014.2
20260505003157 69 62 3.5 5.2 0.00 0.00 0.00 61 1014.2
20260505002656 69 52 3.5 5.2 0.00 0.00 0.00 61 1014.1
20260505002156 69 56 1.7 3.5 0.00 0.00 0.00 61 1014.1
20260505001704 69 56 2.6 3.5 0.00 0.00 0.00 60 1014.1
20260505001156 69 51 2.6 4.3 0.00 0.00 0.00 60 1014.1
20260505000656 69 46 1.7 4.3 0.00 0.00 0.00 60 1014.0
20260505000156 70 72 1.7 5.2 0.00 0.00 0.00 59 1013.9
20260504235656 70 228 0.9 4.3 0.00 0.00 0.00 59 1013.8
20260504235157 70 210 3.5 5.2 0.00 0.00 0.00 59 1013.8
20260504234656 70 220 2.6 4.3 0.00 0.00 0.00 58 1013.7
20260504234158 71 219 1.7 4.3 0.00 0.00 0.00 58 1013.6
20260504233657 71 214 1.7 7.0 0.00 0.00 0.00 57 1013.5
20260504233156 71 250 3.5 7.8 0.00 0.00 0.00 57 1013.5
20260504232657 71 238 2.6 7.0 0.00 0.00 0.00 56 1013.5
20260504232156 72 236 3.5 7.0 0.00 0.00 0.00 56 1013.4
20260504231657 72 212 3.5 6.1 0.00 0.00 0.00 55 1013.4
20260504231156 73 333 1.7 3.5 0.00 0.00 0.00 54 1013.4
20260504230657 73 303 2.6 5.2 0.00 0.00 0.00 53 1013.3
20260504230156 74 225 4.3 8.7 0.00 0.00 0.00 53 1013.3
20260504225656 75 324 3.5 7.0 0.00 0.00 0.00 52 1013.3
20260504225156 76 202 2.6 5.2 0.00 0.00 0.00 50 1013.2
20260504224657 76 285 3.5 7.0 0.00 0.00 0.00 48 1013.1
20260504224156 77 242 2.6 6.1 0.00 0.00 0.00 46 1013.1
20260504223656 78 297 3.5 7.0 0.00 0.00 0.00 44 1013.0
20260504223157 78 59 0.9 3.5 0.00 0.00 0.00 39 1012.9
20260504222657 78 307 3.5 6.1 0.00 0.00 0.00 39 1012.9
20260504222156 78 324 2.6 5.2 0.00 0.00 0.00 39 1012.8
20260504221656 79 280 1.7 5.2 0.00 0.00 0.00 39 1013.1
20260504221157 79 359 2.6 5.2 0.00 0.00 0.00 39 1013.0
20260504220656 79 46 2.6 9.6 0.00 0.00 0.00 39 1013.0
20260504220156 79 344 3.5 6.1 0.00 0.00 0.00 39 1012.9
20260504215657 79 296 1.7 4.3 0.00 0.00 0.00 39 1012.8
20260504215157 79 308 3.5 5.2 0.00 0.00 0.00 38 1012.9
20260504214657 79 344 3.5 6.1 0.00 0.00 0.00 39 1013.0
20260504214157 79 55 1.7 5.2 0.00 0.00 0.00 38 1013.0
20260504213656 80 341 3.5 8.7 0.00 0.00 0.00 38 1013.0
20260504213158 80 328 3.5 6.1 0.00 0.00 0.00 38 1013.1
20260504212657 80 297 2.6 6.1 0.00 0.00 0.00 38 1013.1
20260504212156 80 29 1.7 5.2 0.00 0.00 0.00 38 1013.2
20260504211657 80 334 1.7 3.5 0.00 0.00 0.00 38 1013.2
20260504211157 80 13 1.7 3.5 0.00 0.00 0.00 38 1013.2
20260504210656 81 267 0.9 1.7 0.00 0.00 0.00 38 1013.2
20260504210157 80 357 2.6 4.3 0.00 0.00 0.00 38 1013.1
20260504205657 80 2 2.6 6.1 0.00 0.00 0.00 38 1013.2
20260504205157 80 197 0.9 3.5 0.00 0.00 0.00 38 1013.2
20260504204656 80 40 2.6 8.7 0.00 0.00 0.00 39 1013.2
20260504204157 80 300 2.6 5.2 0.00 0.00 0.00 38 1013.3
20260504203657 80 66 1.7 4.3 0.00 0.00 0.00 38 1013.2
20260504203156 79 209 2.6 5.2 0.00 0.00 0.00 39 1013.2
20260504202656 79 333 4.3 7.0 0.00 0.00 0.00 38 1013.2
20260504202157 79 63 4.3 10.4 0.00 0.00 0.00 39 1013.2
20260504201656 80 304 2.6 4.3 0.00 0.00 0.00 38 1013.4
20260504201157 80 162 2.6 5.2 0.00 0.00 0.00 38 1013.3
20260504200656 80 316 2.6 6.1 0.00 0.00 0.00 39 1013.4
20260504200156 80 255 3.5 7.8 0.00 0.00 0.00 38 1013.4
20260504195656 79 12 3.5 6.1 0.00 0.00 0.00 38 1013.5
20260504195157 79 330 1.7 3.5 0.00 0.00 0.00 39 1013.4
20260504194657 79 341 3.5 6.1 0.00 0.00 0.00 38 1013.6
20260504194156 79 353 2.6 4.3 0.00 0.00 0.00 40 1013.7
20260504193658 80 347 6.1 9.6 0.00 0.00 0.00 38 1013.6
20260504193157 80 353 2.6 4.3 0.00 0.00 0.00 38 1013.7
20260504192659 80 289 0.9 2.6 0.00 0.00 0.00 38 1013.8
20260504192156 80 44 4.3 7.8 0.00 0.00 0.00 38 1013.9
20260504191656 79 16 1.7 3.5 0.00 0.00 0.00 40 1014.0
20260504191156 79 295 2.6 6.1 0.00 0.00 0.00 39 1014.0
20260504190657 79 11 3.5 7.0 0.00 0.00 0.00 39 1014.0
20260504190156 79 298 1.7 5.2 0.00 0.00 0.00 39 1014.1
20260504185656 79 217 2.6 5.2 0.00 0.00 0.00 40 1014.1
20260504185157 80 265 2.6 5.2 0.00 0.00 0.00 40 1014.3
20260504184656 79 156 0.0 1.7 0.00 0.00 0.00 41 1014.2
20260504184157 79 160 1.7 3.5 0.00 0.00 0.00 41 1014.3